"Timestamp","TZ","WindDir_Mean (deg)","WindSpd_Mean (km/h)","WindSpd_Min (km/h)","WindSpd_Max (km/h)","Temp_Mean (deg)","RH_Mean (%)","MSLP_Mean (hPa)","Rain_Acc (mm)","Rain_Intensity (mm/h)","Hail_Acc (hits/cm2)","Hail_Intensity (hits/cm2hr)","Solar_Mean (W/m2)"
2018/02/05 00:00:00.010,n,149,1.8,1.8,1.8,20.4,79,1018.02,0,0,0,0,0.033951
2018/02/05 00:01:00.000,n,144,2.88,2.16,3.24,20.4,79.1,1018.02,0,0,0,0,0.039177
2018/02/05 00:02:00.000,n,170,3.96,3.6,4.32,20.4,78.9,1018.02,0,0,0,0,0.03746
2018/02/05 00:03:00.003,n,189,3.24,2.52,3.6,20.4,79.1,1018.02,0,0,0,0,0.039177
2018/02/05 00:04:00.001,n,163,2.88,2.52,2.88,20.4,79.2,1018.02,0,0,0,0,0.043526
2018/02/05 00:05:00.000,n,166,5.04,4.68,5.4,20.4,79,1018.02,0,0,0,0,0.036583
2018/02/05 00:06:00.000,n,223,2.88,2.52,2.88,20.4,79.1,1018.02,0,0,0,0,0.03746
2018/02/05 00:07:00.009,n,188,5.04,3.96,6.12,20.5,79.2,1018.02,0,0,0,0,0.031357
2018/02/05 00:08:00.007,n,187,3.24,2.52,3.96,20.5,79.1,1017.92,0,0,0,0,0.039177
2018/02/05 00:09:00.006,n,178,5.4,5.4,6.12,20.5,79.3,1018.02,0,0,0,0,0.032234
2018/02/05 00:10:00.000,n,173,3.6,3.24,3.96,20.5,79.2,1018.02,0,0,0,0,0.030479
2018/02/05 00:11:00.001,n,208,3.24,2.88,3.6,20.5,79.3,1018.02,0,0,0,0,0.034828
2018/02/05 00:12:00.000,n,184,3.6,3.24,4.32,20.5,79.4,1017.92,0,0,0,0,0.032234
2018/02/05 00:13:00.000,n,196,4.32,3.24,5.04,20.5,78.5,1017.92,0,0,0,0,0.030479
2018/02/05 00:14:00.000,n,139,1.44,0.36,2.88,20.5,79.3,1017.92,0,0,0,0,0.032234
2018/02/05 00:15:00.006,n,143,3.6,2.16,4.32,20.5,79.1,1018.02,0,0,0,0,0.035706
2018/02/05 00:16:00.004,n,132,3.24,3.24,3.6,20.5,79.2,1017.92,0,0,0,0,0.033073
2018/02/05 00:17:00.001,n,150,2.88,2.52,2.88,20.5,79,1017.92,0,0,0,0,0.029602
2018/02/05 00:18:00.015,n,185,3.24,2.52,3.96,20.5,79.3,1017.92,0,0,0,0,0.030479
2018/02/05 00:19:00.000,n,148,4.68,4.32,5.04,20.5,79,1017.92,0,0,0,0,0.031357
2018/02/05 00:20:00.000,n,174,2.88,1.8,3.6,20.5,79,1017.92,0,0,0,0,0.029602
2018/02/05 00:21:00.000,n,152,3.24,2.88,3.24,20.5,79.1,1017.92,0,0,0,0,0.029602
2018/02/05 00:22:00.000,n,197,3.6,3.24,3.96,20.5,78.9,1017.92,0,0,0,0,0.033073
2018/02/05 00:23:00.006,n,131,4.32,3.6,4.68,20.5,78.9,1017.92,0,0,0,0,0.031357
2018/02/05 00:24:00.004,n,197,3.96,3.6,4.32,20.5,79.2,1017.92,0,0,0,0,0.032234
2018/02/05 00:25:00.000,n,191,5.04,4.68,5.76,20.5,78.9,1017.92,0,0,0,0,0.032234
2018/02/05 00:26:00.000,n,243,3.6,2.88,4.68,20.5,78.8,1017.92,0,0,0,0,0.030479
2018/02/05 00:27:00.012,n,177,2.16,1.8,2.88,20.5,79,1017.92,0,0,0,0,0.032234
2018/02/05 00:28:00.000,n,230,4.68,3.6,5.4,20.5,79.2,1017.92,0,0,0,0,0.031357
2018/02/05 00:29:00.000,n,224,3.96,3.6,4.32,20.5,79.1,1017.92,0,0,0,0,0.032234
2018/02/05 00:30:00.004,n,235,4.32,3.96,4.68,20.5,79.2,1017.92,0,0,0,0,0.030479
2018/02/05 00:31:00.002,n,222,2.88,2.52,3.6,20.5,79.4,1017.92,0,0,0,0,0.032234
2018/02/05 00:32:00.000,n,358,1.8,1.44,2.16,20.5,80,1017.82,0,0,0,0,0.034828
2018/02/05 00:33:00.000,n,244,4.68,3.96,5.04,20.5,79.6,1017.92,0,0,0,0,0.033951
2018/02/05 00:34:00.011,n,279,3.6,3.24,4.32,20.5,79.4,1017.82,0,0,0,0,0.032234
2018/02/05 00:35:00.008,n,260,4.32,3.6,4.68,20.5,79.1,1017.82,0,0,0,0,0.031357
2018/02/05 00:36:00.004,n,274,8.28,7.2,9.72,20.4,79,1017.82,0,0,0,0,0.032234
2018/02/05 00:37:00.002,n,119,0.72,0.36,0.72,20.4,78.9,1017.82,0,0,0,0,0.030479
2018/02/05 00:38:00.000,n,219,7.56,6.84,8.28,20.4,78.6,1017.82,0,0,0,0,0.029602
2018/02/05 00:39:00.000,n,199,2.88,2.16,3.96,20.4,79,1017.72,0,0,0,0,0.029602
2018/02/05 00:40:00.000,n,201,3.24,2.52,3.96,20.4,78.7,1017.72,0,0,0,0,0.034828
2018/02/05 00:41:00.009,n,170,5.04,4.68,5.4,20.4,79.2,1017.72,0,0,0,0,0.036583
2018/02/05 00:42:00.006,n,145,2.16,1.08,2.88,20.4,78.4,1017.72,0,0,0,0,0.027008
2018/02/05 00:43:00.004,n,158,2.52,2.16,2.88,20.3,78.4,1017.72,0,0,0,0,0.025253
2018/02/05 00:44:00.001,n,252,2.88,1.44,3.6,20.3,78.3,1017.72,0,0,0,0,0.033073
2018/02/05 00:45:00.014,n,198,2.16,0.72,3.24,20.3,78.1,1017.72,0,0,0,0,0.027008
2018/02/05 00:46:00.000,n,217,4.32,3.6,5.04,20.3,77.8,1017.72,0,0,0,0,0.032234
2018/02/05 00:47:00.000,n,250,6.48,4.32,6.84,20.3,77.8,1017.62,0,0,0,0,0.028725
2018/02/05 00:48:00.005,n,194,2.88,1.8,3.6,20.3,77.6,1017.62,0,0,0,0,0.030479
2018/02/05 00:49:00.003,n,257,2.16,1.8,2.52,20.3,77.7,1017.62,0,0,0,0,0.033951
2018/02/05 00:50:00.000,n,289,1.8,0.72,2.52,20.3,77.8,1017.62,0,0,0,0,0.023499
2018/02/05 00:51:00.000,n,126,1.44,1.08,1.8,20.3,77.7,1017.62,0,0,0,0,0.028725
2018/02/05 00:52:00.011,n,264,4.68,3.24,5.4,20.3,77.2,1017.62,0,0,0,0,0.027008
2018/02/05 00:53:00.008,n,235,5.04,3.96,6.12,20.2,76.8,1017.62,0,0,0,0,0.027008
2018/02/05 00:54:00.005,n,267,3.6,3.6,3.96,20.2,76.9,1017.62,0,0,0,0,0.024376
2018/02/05 00:55:00.000,n,216,3.24,1.8,4.68,20.2,76.6,1017.62,0,0,0,0,0.027008
2018/02/05 00:56:00.000,n,164,3.96,3.6,4.32,20.2,76.9,1017.62,0,0,0,0,0.024376
2018/02/05 00:57:00.000,n,158,2.16,1.8,2.52,20.2,76.4,1017.62,0,0,0,0,0.032234
2018/02/05 00:58:00.000,n,183,8.28,7.2,9.36,20.1,76.6,1017.52,0,0,0,0,0.032234
2018/02/05 00:59:00.007,n,221,4.68,4.68,4.68,20.1,76.4,1017.52,0,0,0,0,0.027008
2018/02/05 01:00:00.005,n,233,7.92,7.92,9.36,20.1,76.2,1017.52,0,0,0,0,0.025253
2018/02/05 01:01:00.002,n,202,4.68,3.96,5.76,20.1,76.3,1017.62,0,0,0,0,0.027008
2018/02/05 01:02:00.000,n,182,9,7.56,9.72,20.1,76,1017.52,0,0,0,0,0.024376
2018/02/05 01:03:00.013,n,141,3.96,2.16,4.68,20.1,76,1017.52,0,0,0,0,0.025253
2018/02/05 01:04:00.000,n,279,2.52,1.08,4.68,20.1,75.8,1017.52,0,0,0,0,0.024376
2018/02/05 01:05:00.000,n,179,5.76,5.04,6.48,20.1,75.9,1017.52,0,0,0,0,0.021782
2018/02/05 01:06:00.005,n,206,7.2,5.76,8.64,20,75.9,1017.52,0,0,0,0,0.022659
2018/02/05 01:07:00.002,n,212,2.52,1.08,2.88,20,75.9,1017.52,0,0,0,0,0.023499
2018/02/05 01:08:00.000,n,204,2.88,0.36,5.76,20,75.7,1017.42,0,0,0,0,0.024376
2018/02/05 01:09:00.000,n,224,2.52,1.44,3.96,20,76.1,1017.42,0,0,0,0,0.028725
2018/02/05 01:10:00.011,n,151,2.52,1.8,3.24,20,76.1,1017.42,0,0,0,0,0.028725
2018/02/05 01:11:00.009,n,168,11.52,10.8,12.6,20,75.8,1017.42,0,0,0,0,0.021782
2018/02/05 01:12:00.006,n,183,9,8.28,9.36,20,76.1,1017.42,0,0,0,0,0.020905
2018/02/05 01:13:00.000,n,204,3.24,3.24,4.32,19.9,76.3,1017.42,0,0,0,0,0.027008
2018/02/05 01:14:00.001,n,160,2.16,0.36,3.6,19.9,76.3,1017.32,0,0,0,0,0.022659
2018/02/05 01:15:00.000,n,191,7.56,5.04,9,19.9,76.3,1017.32,0,0,0,0,0.024376
2018/02/05 01:16:00.000,n,172,7.2,5.76,8.28,19.9,76.8,1017.32,0,0,0,0,0.021782
2018/02/05 01:17:00.000,n,234,6.84,6.12,7.56,19.9,76.3,1017.32,0,0,0,0,0.020905
2018/02/05 01:18:00.007,n,232,3.24,2.16,3.96,19.9,76.6,1017.32,0,0,0,0,0.018311
2018/02/05 01:19:00.005,n,174,6.12,4.32,8.64,19.9,76.8,1017.32,0,0,0,0,0.01915
2018/02/05 01:20:00.001,n,203,3.96,2.88,4.68,19.8,76.7,1017.32,0,0,0,0,0.018311
2018/02/05 01:21:00.001,n,175,10.08,8.64,10.440002,19.8,76.6,1017.22,0,0,0,0,0.029602
2018/02/05 01:22:00.000,n,172,7.2,6.12,8.64,19.8,76.9,1017.32,0,0,0,0,0.031319
2018/02/05 01:23:00.000,n,330,2.16,0.72,4.32,19.8,77.3,1017.32,0,0,0,0,0.040016
2018/02/05 01:24:00.000,n,196,6.84,4.68,7.92,19.8,77.2,1017.22,0,0,0,0,0.035667
2018/02/05 01:25:00.002,n,182,6.48,5.04,7.56,19.8,77.1,1017.22,0,0,0,0,0.036545
2018/02/05 01:26:00.000,n,156,3.6,2.88,3.96,19.8,77.2,1017.22,0,0,0,0,0.0383
2018/02/05 01:27:00.000,n,212,5.04,2.88,6.84,19.8,77.2,1017.22,0,0,0,0,0.033073
2018/02/05 01:28:00.010,n,155,4.68,3.6,6.48,19.7,77.4,1017.22,0,0,0,0,0.0383
2018/02/05 01:29:00.006,n,224,6.48,5.76,6.84,19.7,77.4,1017.22,0,0,0,0,0.036545
2018/02/05 01:30:00.004,n,227,7.2,5.4,9,19.7,77.3,1017.22,0,0,0,0,0.035667
2018/02/05 01:31:00.001,n,165,9.36,2.88,13.68,19.7,77.4,1017.22,0,0,0,0,0.036545
2018/02/05 01:32:00.000,n,236,6.48,5.76,7.56,19.7,77.4,1017.22,0,0,0,0,0.0383
2018/02/05 01:33:00.000,n,172,12.24,10.440002,15.48,19.6,77.5,1017.12,0,0,0,0,0.0383
2018/02/05 01:34:00.000,n,175,15.12,13.32,16.2,19.6,77.5,1017.12,0,0,0,0,0.028725
2018/02/05 01:35:00.006,n,192,5.4,4.32,7.2,19.6,77.7,1017.12,0,0,0,0,0.028725
2018/02/05 01:36:00.003,n,211,5.04,3.24,6.48,19.6,77.8,1017.12,0,0,0,0,0.033951
2018/02/05 01:37:00.000,n,187,8.64,7.56,10.440002,19.6,77.8,1017.12,0,0,0,0,0.029602
2018/02/05 01:38:00.013,n,199,4.32,2.52,5.76,19.6,77.9,1017.12,0,0,0,0,0.028725
2018/02/05 01:39:00.010,n,195,4.68,3.6,5.76,19.6,78.1,1017.22,0,0,0,0,0.029602
2018/02/05 01:40:00.000,n,149,8.64,6.48,10.8,19.5,78.2,1017.22,0,0,0,0,0.033951
2018/02/05 01:41:00.000,n,190,10.08,9.36,10.8,19.5,78.2,1017.22,0,0,0,0,0.025215
2018/02/05 01:42:00.004,n,168,8.64,8.28,9.72,19.5,78.3,1017.22,0,0,0,0,0.031319
2018/02/05 01:43:00.001,n,176,5.04,3.6,6.12,19.5,78.5,1017.22,0,0,0,0,0.026093
2018/02/05 01:44:00.000,n,156,11.52,9.36,12.6,19.5,78.2,1017.22,0,0,0,0,0.032234
2018/02/05 01:45:00.000,n,172,8.64,6.48,10.08,19.5,78.2,1017.22,0,0,0,0,0.030441
2018/02/05 01:46:00.009,n,204,9,6.84,11.16,19.5,78.3,1017.12,0,0,0,0,0.024376
2018/02/05 01:47:00.006,n,168,8.64,7.2,10.08,19.4,78.4,1017.12,0,0,0,0,0.031357
2018/02/05 01:48:00.015,n,184,6.48,6.12,7.2,19.4,78.4,1017.12,0,0,0,0,0.043526
2018/02/05 01:49:00.000,n,194,9.72,8.64,10.440002,19.4,78.5,1017.12,0,0,0,0,0.035706
2018/02/05 01:50:00.000,n,158,5.04,4.32,5.76,19.4,78.5,1017.12,0,0,0,0,0.032196
2018/02/05 01:51:00.000,n,154,8.28,7.2,8.64,19.4,78.6,1017.12,0,0,0,0,0.036583
2018/02/05 01:52:00.003,n,161,2.52,1.8,3.24,19.4,78.9,1017.12,0,0,0,0,0.036583
2018/02/05 01:53:00.001,n,244,2.52,2.52,2.52,19.4,79,1017.22,0,0,0,0,0.030479
2018/02/05 01:54:00.000,n,136,2.16,2.16,2.52,19.4,79.2,1017.12,0,0,0,0,0.039177
2018/02/05 01:55:00.000,n,151,2.52,1.08,3.6,19.4,79,1017.22,0,0,0,0,0.028725
2018/02/05 01:56:00.010,n,233,3.24,3.24,3.6,19.4,79.1,1017.22,0,0,0,0,0.029602
2018/02/05 01:57:00.007,n,152,1.08,1.08,1.44,19.4,79.3,1017.22,0,0,0,0,0.030479
2018/02/05 01:58:00.000,n,237,3.6,2.52,4.68,19.4,79.3,1017.12,0,0,0,0,0.031357
2018/02/05 01:59:00.001,n,247,2.52,1.44,3.96,19.3,79.4,1017.12,0,0,0,0,0.027847
2018/02/05 02:00:00.000,n,238,2.16,1.44,2.88,19.3,79.5,1017.22,0,0,0,0,0.036583
2018/02/05 02:01:00.000,n,253,6.12,5.4,7.56,19.3,79.5,1017.22,0,0,0,0,0.036583
2018/02/05 02:02:00.000,n,232,3.24,2.16,3.96,19.3,79.7,1017.22,0,0,0,0,0.034828
2018/02/05 02:03:00.008,n,246,3.6,2.88,3.96,19.3,79.5,1017.22,0,0,0,0,0.031357
2018/02/05 02:04:00.005,n,240,5.4,4.68,5.76,19.3,79.5,1017.22,0,0,0,0,0.033951
2018/02/05 02:05:00.004,n,255,7.92,7.2,8.64,19.2,79.5,1017.22,0,0,0,0,0.032196
2018/02/05 02:06:00.002,n,254,6.12,4.32,7.2,19.2,79.7,1017.22,0,0,0,0,0.028725
2018/02/05 02:07:00.000,n,250,3.6,3.24,4.68,19.2,79.8,1017.22,0,0,0,0,0.032196
2018/02/05 02:08:00.000,n,162,2.88,0.72,4.32,19.2,79.9,1017.22,0,0,0,0,0.033073
2018/02/05 02:09:00.000,n,280,6.48,4.68,7.92,19.2,79.9,1017.22,0,0,0,0,0.023499
2018/02/05 02:10:00.006,n,115,1.44,0.36,3.24,19.2,80,1017.12,0,0,0,0,0.027008
2018/02/05 02:11:00.004,n,206,4.32,3.6,5.4,19.2,80,1017.12,0,0,0,0,0.026131
2018/02/05 02:12:00.003,n,177,2.52,0.72,3.96,19.2,80.1,1017.12,0,0,0,0,0.023499
2018/02/05 02:13:00.000,n,170,0.72,0,1.44,19.1,80,1017.12,0,0,0,0,0.022621
2018/02/05 02:14:00.000,n,235,5.4,4.68,6.12,19.1,80.2,1017.12,0,0,0,0,0.026131
2018/02/05 02:15:00.011,n,219,4.32,3.96,5.04,19.1,80.1,1017.22,0,0,0,0,0.022621
2018/02/05 02:16:00.000,n,309,3.96,1.44,4.68,19.1,80.2,1017.22,0,0,0,0,0.020027
2018/02/05 02:17:00.000,n,3,1.44,0.36,2.52,19.1,80.3,1017.22,0,0,0,0,0.022621
2018/02/05 02:18:00.004,n,203,2.52,2.16,4.32,19.1,80.1,1017.22,0,0,0,0,0.020027
2018/02/05 02:19:00.002,n,251,5.4,4.68,6.12,19.1,80,1017.12,0,0,0,0,0.021782
2018/02/05 02:20:00.000,n,240,4.68,3.96,5.04,19.1,80,1017.12,0,0,0,0,0.021782
2018/02/05 02:21:00.000,n,180,5.04,4.32,5.4,19.1,80.3,1017.12,0,0,0,0,0.021782
2018/02/05 02:22:00.011,n,198,4.32,3.6,5.4,19.1,80,1017.12,0,0,0,0,0.018272
2018/02/05 02:23:00.009,n,108,1.08,0.72,1.44,19.1,80.1,1017.12,0,0,0,0,0.024376
2018/02/05 02:24:00.012,n,190,7.56,5.76,9.36,19.1,80,1017.12,0,0,0,0,0.01915
2018/02/05 02:25:00.000,n,201,6.48,6.12,7.92,19.1,79.8,1017.22,0,0,0,0,0.023499
2018/02/05 02:26:00.000,n,234,5.76,5.04,6.84,19.1,79.7,1017.22,0,0,0,0,0.021782
2018/02/05 02:27:00.000,n,217,1.8,0.72,2.52,19.1,79.7,1017.22,0,0,0,0,0.024376
2018/02/05 02:28:00.005,n,152,1.44,0.72,1.8,19.1,79.9,1017.12,0,0,0,0,0.01915
2018/02/05 02:29:00.002,n,96,3.96,2.88,5.04,19.1,79.7,1017.12,0,0,0,0,0.020905
2018/02/05 02:30:00.000,n,169,4.32,3.6,5.4,19.1,79.6,1017.12,0,0,0,0,0.020027
2018/02/05 02:31:00.000,n,178,3.96,2.52,6.12,19.1,79.6,1017.12,0,0,0,0,0.020027
2018/02/05 02:32:00.012,n,159,7.2,4.68,8.28,19.1,79.8,1017.12,0,0,0,0,0.02697
2018/02/05 02:33:00.006,n,202,3.24,2.88,3.96,19.1,79.5,1017.12,0,0,0,0,0.029564
2018/02/05 02:34:00.000,n,171,6.84,6.12,7.56,19.1,79.5,1017.12,0,0,0,0,0.030441
2018/02/05 02:35:00.000,n,220,1.8,1.8,2.16,19.1,79.8,1017.12,0,0,0,0,0.029564
2018/02/05 02:36:00.000,n,253,2.52,2.16,3.24,19.1,79.7,1017.12,0,0,0,0,0.028725
2018/02/05 02:37:00.000,n,250,4.32,3.96,4.68,19.1,79.7,1017.12,0,0,0,0,0.029564
2018/02/05 02:38:00.008,n,239,3.6,1.44,4.68,19.1,79.9,1017.12,0,0,0,0,0.028725
2018/02/05 02:39:00.005,n,259,4.68,3.24,5.4,19.1,79.8,1017.12,0,0,0,0,0.033073
2018/02/05 02:40:00.002,n,249,3.24,2.52,3.96,19.1,80,1017.12,0,0,0,0,0.031281
2018/02/05 02:41:00.000,n,257,7.56,6.48,8.28,19.1,79.6,1017.12,0,0,0,0,0.035667
2018/02/05 02:42:00.013,n,256,2.88,2.16,3.24,19.1,79.5,1017.12,0,0,0,0,0.032196
2018/02/05 02:43:00.000,n,258,3.96,3.6,4.68,19.1,79.6,1017.12,0,0,0,0,0.033913
2018/02/05 02:44:00.000,n,244,3.6,3.24,3.96,19.1,79.5,1017.12,0,0,0,0,0.02697
2018/02/05 02:45:00.006,n,195,2.16,1.8,2.52,19,79.5,1017.12,0,0,0,0,0.028725
2018/02/05 02:46:00.003,n,246,4.68,3.96,5.4,19,79.6,1017.12,0,0,0,0,0.022621
2018/02/05 02:47:00.000,n,264,4.68,2.88,7.56,19,79.9,1017.12,0,0,0,0,0.029564
2018/02/05 02:48:00.000,n,238,5.4,5.04,6.12,19.1,79.9,1017.12,0,0,0,0,0.024338
2018/02/05 02:49:00.010,n,243,1.44,1.08,1.8,19.1,79.8,1017.12,0,0,0,0,0.023499
2018/02/05 02:50:00.008,n,221,4.32,3.96,5.04,19.1,79.8,1017.12,0,0,0,0,0.033073
2018/02/05 02:51:00.006,n,209,3.96,3.6,4.32,19.1,79.8,1017.12,0,0,0,0,0.02697
2018/02/05 02:52:00.000,n,230,2.52,1.8,3.24,19,79.8,1017.12,0,0,0,0,0.023499
2018/02/05 02:53:00.000,n,248,1.44,1.08,2.16,19,79.9,1017.12,0,0,0,0,0.030441
2018/02/05 02:54:00.000,n,209,3.6,2.88,3.96,19,79.8,1017.12,0,0,0,0,0.025215
2018/02/05 02:55:00.000,n,164,4.68,3.6,5.76,19,79.8,1017.12,0,0,0,0,0.029564
2018/02/05 02:56:00.000,n,276,3.96,3.6,4.68,19,79.7,1017.12,0,0,0,0,0.023499
2018/02/05 02:57:00.006,n,165,3.24,2.52,4.32,19,79.8,1017.12,0,0,0,0,0.025215
2018/02/05 02:58:00.005,n,239,4.68,4.68,5.04,19,79.7,1017.12,0,0,0,0,0.021744
2018/02/05 02:59:00.001,n,236,5.76,3.96,6.84,19,79.6,1017.12,0,0,0,0,0.024338
2018/02/05 03:00:00.014,n,180,7.2,5.4,7.92,19,79.7,1017.12,0,0,0,0,0.023499
2018/02/05 03:01:00.000,n,195,1.8,1.44,2.16,19,79.7,1017.12,0,0,0,0,0.023499
2018/02/05 03:02:00.000,n,210,3.96,2.52,4.68,19,79.7,1017.12,0,0,0,0,0.033913
2018/02/05 03:03:00.000,n,184,3.6,3.24,3.96,19,79.6,1017.12,0,0,0,0,0.025215
2018/02/05 03:04:00.005,n,210,2.88,1.8,3.96,19,79.5,1017.12,0,0,0,0,0.022621
2018/02/05 03:05:00.003,n,167,3.24,2.88,3.24,19,79.5,1017.12,0,0,0,0,0.021744
2018/02/05 03:06:00.001,n,208,5.4,4.32,6.12,19,79.5,1017.12,0,0,0,0,0.028725
2018/02/05 03:07:00.000,n,188,3.6,2.52,4.68,19,79.4,1017.02,0,0,0,0,0.028725
2018/02/05 03:08:00.013,n,128,2.88,0.36,5.4,19,79.5,1017.02,0,0,0,0,0.025215
2018/02/05 03:09:00.010,n,230,2.16,1.8,2.88,19,79.5,1017.02,0,0,0,0,0.024338
2018/02/05 03:10:00.000,n,185,1.8,1.08,2.52,19,79.5,1017.02,0,0,0,0,0.023499
2018/02/05 03:11:00.004,n,173,7.92,7.56,9,19,79.3,1017.02,0,0,0,0,0.021744
2018/02/05 03:12:00.001,n,136,1.44,1.08,2.16,19,79.5,1017.12,0,0,0,0,0.022621
2018/02/05 03:13:00.000,n,209,3.24,2.52,3.6,19,79.5,1017.12,0,0,0,0,0.019989
2018/02/05 03:14:00.000,n,161,3.96,2.16,4.68,19,79.6,1017.12,0,0,0,0,0.032196
2018/02/05 03:15:00.005,n,161,2.52,2.16,2.88,19,79.5,1017.12,0,0,0,0,0.036545
2018/02/05 03:16:00.004,n,149,2.52,2.16,3.24,19,79.6,1017.12,0,0,0,0,0.0383
2018/02/05 03:17:00.000,n,155,4.32,2.88,5.04,19,79.5,1017.12,0,0,0,0,0.034828
2018/02/05 03:18:00.014,n,167,1.44,0.72,2.16,18.9,79.6,1017.12,0,0,0,0,0.033951
2018/02/05 03:19:00.000,n,179,2.52,2.16,2.88,18.9,79.7,1017.12,0,0,0,0,0.0383
2018/02/05 03:20:00.000,n,229,4.32,3.6,4.68,19,79.7,1017.22,0,0,0,0,0.032196
2018/02/05 03:21:00.000,n,174,1.8,0.72,2.88,18.9,79.7,1017.12,0,0,0,0,0.040054
2018/02/05 03:22:00.004,n,209,2.16,1.8,2.52,18.9,79.8,1017.12,0,0,0,0,0.039177
2018/02/05 03:23:00.002,n,233,2.88,1.08,3.6,18.9,79.8,1017.12,0,0,0,0,0.031319
2018/02/05 03:24:00.000,n,275,2.52,2.16,2.88,18.9,79.9,1017.12,0,0,0,0,0.033951
2018/02/05 03:25:00.011,n,235,4.68,3.96,5.04,18.9,79.7,1017.12,0,0,0,0,0.033073
2018/02/05 03:26:00.009,n,246,5.4,4.68,6.12,18.9,80,1017.22,0,0,0,0,0.037422
2018/02/05 03:27:00.006,n,235,5.04,4.32,6.12,18.9,79.7,1017.22,0,0,0,0,0.033073
2018/02/05 03:28:00.000,n,225,0.72,0.36,1.44,18.9,79.8,1017.12,0,0,0,0,0.036545
2018/02/05 03:29:00.001,n,299,3.24,2.16,3.96,18.9,79.8,1017.22,0,0,0,0,0.02697
2018/02/05 03:30:00.000,n,243,2.88,2.16,3.6,18.9,79.7,1017.22,0,0,0,0,0.027847
2018/02/05 03:31:00.000,n,261,5.4,2.88,7.56,18.9,79.6,1017.22,0,0,0,0,0.031319
2018/02/05 03:32:00.000,n,288,5.04,3.6,5.76,18.8,80.1,1017.22,0,0,0,0,0.028725
2018/02/05 03:33:00.007,n,255,6.84,5.76,8.28,18.9,79.7,1017.22,0,0,0,0,0.030479
2018/02/05 03:34:00.005,n,270,8.28,7.92,9,18.9,79.5,1017.22,0,0,0,0,0.027847
2018/02/05 03:35:00.002,n,232,5.4,4.68,6.84,18.8,79.7,1017.22,0,0,0,0,0.030479
2018/02/05 03:36:00.000,n,252,1.44,0.72,2.88,18.9,79.7,1017.22,0,0,0,0,0.030479
2018/02/05 03:37:00.000,n,216,3.24,2.88,3.6,18.9,79.8,1017.22,0,0,0,0,0.026131
2018/02/05 03:38:00.000,n,226,3.96,3.24,5.4,18.9,79.8,1017.22,0,0,0,0,0.028725
2018/02/05 03:39:00.000,n,153,5.4,5.04,6.48,18.9,79.7,1017.22,0,0,0,0,0.02697
2018/02/05 03:40:00.000,n,45,0.72,0.36,1.08,18.9,79.7,1017.22,0,0,0,0,0.029602
2018/02/05 03:41:00.005,n,162,1.44,1.08,1.8,18.8,79.7,1017.22,0,0,0,0,0.027847
2018/02/05 03:42:00.002,n,158,3.24,1.44,4.68,18.8,79.5,1017.22,0,0,0,0,0.029602
2018/02/05 03:43:00.000,n,223,3.24,2.88,3.6,18.8,79.5,1017.22,0,0,0,0,0.027847
2018/02/05 03:44:00.013,n,231,0.72,0.36,1.44,18.8,79.6,1017.22,0,0,0,0,0.029602
2018/02/05 03:45:00.011,n,174,3.6,2.16,6.12,18.8,79.6,1017.22,0,0,0,0,0.029602
2018/02/05 03:46:00.000,n,108,1.8,1.44,1.8,18.9,79.5,1017.12,0,0,0,0,0.032196
2018/02/05 03:47:00.000,n,294,0.72,0.36,0.72,18.9,79.5,1017.12,0,0,0,0,0.029602
2018/02/05 03:48:00.002,n,171,2.16,0.36,2.88,18.9,79.7,1017.22,0,0,0,0,0.025253
2018/02/05 03:49:00.000,n,191,6.12,5.76,6.84,18.8,79.7,1017.22,0,0,0,0,0.032196
2018/02/05 03:50:00.000,n,172,2.52,2.16,2.88,18.8,79.6,1017.22,0,0,0,0,0.032196
2018/02/05 03:51:00.000,n,213,3.24,2.88,3.24,18.8,79.8,1017.12,0,0,0,0,0.028725
2018/02/05 03:52:00.008,n,186,0.72,0.72,1.08,18.8,79.7,1017.12,0,0,0,0,0.026131
2018/02/05 03:53:00.005,n,182,3.96,3.24,4.68,18.8,79.8,1017.12,0,0,0,0,0.02697
2018/02/05 03:54:00.002,n,160,3.24,2.88,3.96,18.8,79.7,1017.12,0,0,0,0,0.026131
2018/02/05 03:55:00.000,n,164,2.52,1.44,3.24,18.8,79.9,1017.12,0,0,0,0,0.024376
2018/02/05 03:56:00.000,n,226,2.88,2.52,2.88,18.8,79.8,1017.12,0,0,0,0,0.028725
2018/02/05 03:57:00.000,n,187,5.4,4.68,6.12,18.8,79.9,1017.12,0,0,0,0,0.026131
2018/02/05 03:58:00.000,n,187,5.76,5.4,6.48,18.8,79.8,1017.02,0,0,0,0,0.025253
2018/02/05 03:59:00.005,n,183,5.76,5.4,6.12,18.8,79.7,1017.02,0,0,0,0,0.024376
2018/02/05 04:00:00.001,n,174,3.6,1.08,4.32,18.8,79.7,1017.02,0,0,0,0,0.026131
2018/02/05 04:01:00.000,n,66,0.36,0,0.72,18.8,79.7,1017.02,0,0,0,0,0.031319
2018/02/05 04:02:00.012,n,132,2.52,1.8,3.6,18.8,79.9,1017.02,0,0,0,0,0.025253
2018/02/05 04:03:00.009,n,228,4.68,4.32,5.04,18.8,79.8,1017.02,0,0,0,0,0.023499
2018/02/05 04:04:00.000,n,149,1.08,0.72,1.8,18.8,80,1017.02,0,0,0,0,0.024376
2018/02/05 04:05:00.000,n,128,1.08,0.36,3.6,18.8,79.8,1017.02,0,0,0,0,0.02697
2018/02/05 04:06:00.003,n,257,3.96,3.24,4.68,18.8,79.8,1017.02,0,0,0,0,0.026131
2018/02/05 04:07:00.002,n,224,2.52,0.36,5.04,18.8,80.2,1017.02,0,0,0,0,0.024376
2018/02/05 04:08:00.000,n,237,3.6,2.16,4.68,18.8,80.1,1017.02,0,0,0,0,0.024376
2018/02/05 04:09:00.000,n,221,3.24,2.16,3.96,18.8,80.2,1017.12,0,0,0,0,0.02697
2018/02/05 04:10:00.010,n,258,3.6,1.44,5.04,18.8,80.2,1017.12,0,0,0,0,0.025253
2018/02/05 04:11:00.007,n,249,4.68,2.16,7.56,18.8,80,1017.12,0,0,0,0,0.026131
2018/02/05 04:12:00.004,n,62,1.44,1.08,3.24,18.8,79.8,1017.12,0,0,0,0,0.023499
2018/02/05 04:13:00.001,n,212,7.2,6.12,9.72,18.8,79.8,1017.12,0,0,0,0,0.02697
2018/02/05 04:14:00.000,n,262,3.6,2.52,4.32,18.8,80,1017.12,0,0,0,0,0.024376
2018/02/05 04:15:00.000,n,305,2.88,1.44,3.6,18.8,79.9,1017.12,0,0,0,0,0.027885
2018/02/05 04:16:00.005,n,314,1.8,0.72,3.24,18.8,79.9,1017.22,0,0,0,0,0.033951
2018/02/05 04:17:00.004,n,288,1.44,0.36,2.16,18.8,79.8,1017.22,0,0,0,0,0.030479
2018/02/05 04:18:00.001,n,262,0.72,0.36,1.08,18.8,79.6,1017.22,0,0,0,0,0.028763
2018/02/05 04:19:00.000,n,221,2.88,2.52,3.24,18.7,79.7,1017.32,0,0,0,0,0.028763
2018/02/05 04:20:00.013,n,184,3.6,2.52,5.04,18.7,79.6,1017.32,0,0,0,0,0.036545
2018/02/05 04:21:00.012,n,159,1.08,0.36,1.8,18.7,79.6,1017.32,0,0,0,0,0.030479
2018/02/05 04:22:00.000,n,234,2.52,0.36,3.96,18.7,79.5,1017.32,0,0,0,0,0.028763
2018/02/05 04:23:00.000,n,97,1.08,0.36,2.88,18.7,79.6,1017.32,0,0,0,0,0.02697
2018/02/05 04:24:00.006,n,227,3.96,2.16,4.68,18.7,79.7,1017.32,0,0,0,0,0.028763
2018/02/05 04:25:00.002,n,222,3.6,2.52,3.96,18.7,79.7,1017.32,0,0,0,0,0.029602
2018/02/05 04:26:00.000,n,212,1.08,0.36,1.8,18.7,79.9,1017.32,0,0,0,0,0.02697
2018/02/05 04:27:00.000,n,144,2.16,2.16,2.52,18.7,79.8,1017.42,0,0,0,0,0.028763
2018/02/05 04:28:00.010,n,186,1.8,0.72,3.24,18.7,79.8,1017.42,0,0,0,0,0.026131
2018/02/05 04:29:00.008,n,260,1.44,0.72,1.8,18.7,79.8,1017.42,0,0,0,0,0.027885
2018/02/05 04:30:00.004,n,177,1.08,0.72,1.44,18.7,79.8,1017.42,0,0,0,0,0.028763
2018/02/05 04:31:00.000,n,165,1.44,0.72,2.88,18.7,79.8,1017.42,0,0,0,0,0.027885
2018/02/05 04:32:00.000,n,194,3.96,2.88,4.32,18.7,80,1017.42,0,0,0,0,0.025253
2018/02/05 04:33:00.000,n,160,0.72,0.36,1.44,18.7,80,1017.42,0,0,0,0,0.033951
2018/02/05 04:34:00.000,n,237,4.32,3.6,5.76,18.7,80.1,1017.42,0,0,0,0,0.02697
2018/02/05 04:35:00.007,n,178,2.52,1.44,3.24,18.7,80.3,1017.42,0,0,0,0,0.023537
2018/02/05 04:36:00.005,n,206,1.44,0.72,1.8,18.7,80.4,1017.42,0,0,0,0,0.025253
2018/02/05 04:37:00.001,n,191,2.88,2.16,3.96,18.7,80.3,1017.42,0,0,0,0,0.023537
2018/02/05 04:38:00.015,n,225,3.24,2.88,3.24,18.7,80.3,1017.42,0,0,0,0,0.024376
2018/02/05 04:39:00.011,n,199,4.32,3.24,5.04,18.7,80.6,1017.42,0,0,0,0,0.026131
2018/02/05 04:40:00.000,n,250,4.32,2.88,5.76,18.7,80.7,1017.52,0,0,0,0,0.031357
2018/02/05 04:41:00.000,n,233,2.52,2.16,2.88,18.7,80.5,1017.52,0,0,0,0,0.024376
2018/02/05 04:42:00.004,n,259,6.12,4.32,7.2,18.6,80.6,1017.52,0,0,0,0,0.026131
2018/02/05 04:43:00.001,n,246,1.8,1.08,2.52,18.6,80.7,1017.52,0,0,0,0,0.026131
2018/02/05 04:44:00.000,n,243,2.52,2.16,2.88,18.6,80.8,1017.42,0,0,0,0,0.027885
2018/02/05 04:45:00.000,n,235,2.88,2.52,3.24,18.6,80.8,1017.42,0,0,0,0,0.025253
2018/02/05 04:46:00.010,n,229,3.24,2.16,4.68,18.6,80.9,1017.42,0,0,0,0,0.027885
2018/02/05 04:47:00.007,n,241,3.6,3.6,4.32,18.6,80.9,1017.42,0,0,0,0,0.031357
2018/02/05 04:48:00.004,n,249,2.88,2.16,3.6,18.6,80.9,1017.52,0,0,0,0,0.028763
2018/02/05 04:49:00.001,n,277,1.8,1.08,1.8,18.6,81,1017.52,0,0,0,0,0.028763
2018/02/05 04:50:00.000,n,263,4.32,3.96,4.68,18.6,81.2,1017.52,0,0,0,0,0.030479
2018/02/05 04:51:00.000,n,255,2.88,2.52,3.96,18.6,81.2,1017.52,0,0,0,0,0.028763
2018/02/05 04:52:00.009,n,233,2.88,1.8,3.96,18.6,81.2,1017.52,0,0,0,0,0.03746
2018/02/05 04:53:00.010,n,256,3.6,2.88,4.32,18.5,81.3,1017.52,0,0,0,0,0.03746
2018/02/05 04:54:00.006,n,194,3.24,2.52,3.6,18.5,81.3,1017.52,0,0,0,0,0.0383
2018/02/05 04:55:00.004,n,177,1.08,0.36,1.08,18.5,81.6,1017.52,0,0,0,0,0.041809
2018/02/05 04:56:00.001,n,218,2.52,1.8,3.24,18.5,81.5,1017.52,0,0,0,0,0.053978